カタログに戻る

HULIANWANG DIGUI-180

運用中科学LEO
NORAD 100205·PAYLOAD·🇨🇳 China

打ち上げ Aug 4, 2026 から Wenchang Space Launch Site

Loading…

次のパス (今後24時間)

TLE

最新Source: Space-Track

元期: Sep 14, 2026, 12:55 UTC

1 A0205U 26176C   26257.53844421 -.00000092  00000-0  69945-4 0  9991
2 A0205  49.9882 245.4785 0000231   0.0332   0.0540 13.29327073  5504

AllMySatでHULIANWANG DIGUI-180をリアルタイム追跡

Download on the App Store